Flag for Austria Weather past 2 weeks in Ansfelden, Upper Austria, Austria

Now
78 °F

Partly sunny.


Feels Like: 79 °F
Forecast: 59 / 81 °F
Wind: N/A

Location: Linz / Hoersching-Flughafen

Current Time: Jun 30, 2015 at 5:08:23 PM

Latest Report: Jun 30, 2015 at 4:00 PM


Visibility: 13 mi

Pressure: 30.10 "Hg

Humidity: 55%

Dew point: 60 °F

Location of AnsfeldenLocation

Historic Weather in Ansfelden — Graph

°F

Ansfelden temperature yesterday

Maximum temperature yesterday: 78 °F (at 6:00 PM)
Minimum temperature yesterday: 55 °F (at 2:00 AM)
Average temperature yesterday: 65 °F

Past Weeks' High & Low Weather Summary

 TemperatureHumidityPressure
High79 °F (Jun 30, 2:00 PM)98% (Jun 25, 5:00 AM)30.27 "Hg (Jun 25, 5:00 AM)
Low47 °F (Jun 25, 6:00 AM)36% (Jun 25, 3:00 PM)29.72 "Hg (Jun 23, 2:00 AM)
Average61 °F73%30.08 "Hg
* Reported Jun 15 3:00 PM — Jun 30 3:00 PM, Ansfelden, Weather by CustomWeather, © 2015

Note: Actual official high and low records may vary slightly from our data, if they occured in-between our weather recording intervals... More about our weather records

Advertising

Ansfelden weather history for previous 24 hours

 ConditionsComfort  
Time TempWeatherWind HumidityBarometerVisibility
3:00 PM
Tue, Jun 30
78 °FPartly sunny.N/A51%30.10 "Hg22 mi
2:00 PM79 °FPartly sunny.3 mph43%30.11 "Hg28 mi
1:00 PM78 °FScattered clouds.N/A51%30.13 "Hg25 mi
12:00 PM74 °FPartly sunny.N/A60%30.14 "Hg12 mi
11:00 AM72 °FPartly sunny.N/A64%30.16 "Hg16 mi
10:00 AMN/APassing clouds.13 mphN/AN/A43 mi
9:00 AM65 °FPartly sunny.N/A78%30.17 "Hg17 mi
8:00 AM62 °FPartly sunny.N/A85%30.18 "Hg11 mi
7:00 AM59 °FScattered clouds.N/A89%30.19 "Hg19 mi
6:00 AM56 °FPassing clouds.N/A94%30.18 "Hg11 mi
5:00 AM56 °FPassing clouds.N/A93%30.18 "Hg13 mi
4:00 AM58 °FPassing clouds.N/A90%30.18 "Hg22 mi
3:00 AM59 °FPassing clouds.N/A91%30.19 "Hg18 mi
2:00 AM60 °FPassing clouds.N/A86%30.19 "Hg15 mi
1:00 AM61 °FPassing clouds.N/A83%30.19 "Hg22 mi
12:00 AM61 °FCool.N/A83%30.18 "Hg28 mi
11:00 PM
Mon, Jun 29
64 °FPassing clouds.N/A75%30.18 "Hg25 mi
10:00 PM66 °FPassing clouds.N/A68%30.16 "Hg31 mi
9:00 PM68 °FScattered clouds.5 mph62%30.14 "Hg28 mi
8:00 PM75 °FPassing clouds.N/A47%30.10 "Hg28 mi
7:00 PM77 °FPassing clouds.5 mph36%30.09 "Hg22 mi
6:00 PM78 °FPassing clouds.N/A43%30.09 "Hg31 mi
5:00 PM77 °FPassing clouds.3 mph40%30.10 "Hg18 mi
Weather by CustomWeather, © 2015

See weather overviewHow to use our weather pages